Tracking 18987 objects as of 25-Feb-2018
HD Live streaming from Space Station
objects crossing your sky now

FENGYUN 1C DEB

Track FENGYUN 1C DEB now!
10-day predictions


NORAD ID: 33642
Int'l Code: 1999-025DEB
Perigee: 423.6 km
Apogee: 495.0 km
Inclination: 99.3 °
Period: 93.6 minutes
Semi major axis: 6830 km
RCS: 0.0145 m2 (small)
Launch date: May 10, 1999
Source: People's Republic of China (PRC)
Launch site: Taiyaun Space Center, China (TSC)

Note: This is SATELLITE DEBRIS
aabbcc
Your satellite tracking list
Your tracking list is empty




NASA's NSSDC Master Catalog

Two Line Element Set (TLE):
1 33642U 99025DEB 18054.56862829 +.00051674 +00000-0 +13169-2 0  9992
2 33642 099.2664 176.2952 0052232 041.8755 318.6461 15.37955609219979
Source of the keplerian elements: AFSPC